#datint,netname,site,siteID,timestamp,IntT,BattV,AirT2,AirT,AirT_Avg,AirT_Max,AirT_Min,RH_Avg,RH_Max,RH_Min,EA_Avg,Td_Avg,Td_Max,Td_Min,WindS_Smp,WindS_Avg,WindD_Avg,WindD_SD,WindS_Max,ETo,ETr,SoilT4,SoilT8,SoilVWC8,SolarW_Avg,wetstate_Avg,wetT_Avg,Precip_accum,Precip_WPG,Precip_TB
15min,AgWx,beryljct,423,29MAY2018:01:00:00,50.1,13.02,47.9,47.5,47.6,48.4,46.9,72,74,70,0.793,38.9,39.3,38.6,1.447,0.3,246,0.0,1.4,-0.00015,-0.00023,65.1,65.5,13,0,0,44.4,13.89,0.00,0.00
15min,AgWx,beryljct,423,29MAY2018:01:15:00,49.1,13,45.9,45.4,45.8,47.5,45.2,76,79,71,0.807,38.8,39.0,38.5,0.482,1.3,248,0.1,2.1,-0.00008,-0.00011,64.9,65.4,13,0,0,44.0,13.90,0.00,0.00
15min,AgWx,beryljct,423,29MAY2018:01:30:00,48.3,13,46.4,46.8,45.9,46.8,45.4,78,82,73,0.792,39.4,40.4,38.1,1.359,0.4,248,0.0,1.5,-0.00015,-0.00022,64.6,65.3,13,0,0,42.7,13.90,0.00,0.00
15min,AgWx,beryljct,423,29MAY2018:01:45:00,47.7,12.98,46.1,45.1,46.0,47.1,44.5,73,79,71,0.764,38.0,38.5,37.4,1.184,1.2,246,1.9,2.1,-0.00008,-0.00011,64.4,65.3,13,0,0,43.4,13.90,0.00,0.00
15min,AgWx,beryljct,423,29MAY2018:02:00:00,47.2,12.98,45.4,47.8,44.9,47.8,43.6,71,75,63,0.708,35.9,37.6,34.3,1.732,1.6,233,10,2.7,-0.00005,-0.00006,64.1,65.2,13,0,0,43.1,13.90,0.00,0.00
15min,AgWx,beryljct,423,29MAY2018:02:15:00,46.9,12.98,47.7,47.7,47.3,50.5,44.3,71,78,62,0.874,38.2,41.4,35.7,0,0.2,227,2.8,1.7,-0.00016,-0.00025,63.9,65.1,13,0,0,44.8,13.90,0.00,0.00
15min,AgWx,beryljct,423,29MAY2018:02:30:00,46.7,12.96,45.7,44.4,45.8,47.9,44.2,78,85,71,0.806,39.4,41.7,37.4,2.872,1.6,296,25,3.7,-0.00008,-0.00010,63.6,65.0,13,0,0,44.5,13.90,0.00,0.00
15min,AgWx,beryljct,423,29MAY2018:02:45:00,46.2,12.94,43.7,41.8,43.7,45.1,41.8,75,82,71,0.656,36.4,39.1,33.7,2.828,3.5,317,6.5,4.5,0.00002,0.00004,63.4,64.9,13,0,0,42.8,13.90,0.00,0.00
15min,AgWx,beryljct,423,29MAY2018:03:00:00,45.6,12.94,43.2,43.0,42.8,43.9,41.3,76,82,68,0.685,35.6,37.2,33.0,3.639,2.8,321,0.1,3.7,-0.00001,0.00000,63.1,64.8,13,0,0,41.5,13.90,0.00,0.00
15min,AgWx,beryljct,423,29MAY2018:03:15:00,45.1,12.94,44.5,44.6,44.0,45.3,42.9,76,80,72,0.754,37.0,37.8,35.1,2.806,4.2,307,5.9,5.5,0.00004,0.00006,62.9,64.7,13,0,0,42.9,13.90,0.00,0.00
15min,AgWx,beryljct,423,29MAY2018:03:30:00,44.8,12.91,42.7,42.6,42.6,44.5,41.4,70,77,66,0.679,33.6,37.2,32.3,3.771,3.6,318,6.9,4.8,0.00004,0.00007,62.6,64.6,13,0,0,42.0,13.90,0.00,0.00
15min,AgWx,beryljct,423,29MAY2018:03:45:00,44.4,12.92,42.8,40.8,42.6,43.7,40.8,70,74,66,0.640,33.7,36.0,32.1,0.702,1.8,319,4.1,3.9,-0.00004,-0.00004,62.4,64.5,13,0,0,41.2,13.90,0.00,0.00
15min,AgWx,beryljct,423,29MAY2018:04:00:00,43.8,12.91,41.7,41.2,41.3,44.0,39.7,76,80,68,0.690,34.3,35.7,33.1,4.823,3.0,138,38,5.6,-0.00000,0.00001,62.2,64.4,13,0,0,39.8,13.90,0.00,0.00
15min,AgWx,beryljct,423,29MAY2018:04:15:00,43.4,12.9,41.7,39.6,41.5,42.3,39.6,76,81,72,0.669,34.3,35.0,33.9,3.683,3.6,164,14,4.6,0.00002,0.00004,62.0,64.3,13,0,0,40.3,13.90,0.00,0.00
15min,AgWx,beryljct,423,29MAY2018:04:30:00,42.9,12.9,41.3,40.2,40.9,42.7,39.3,78,83,72,0.672,34.4,34.7,34.1,1.973,3.2,162,11,4.4,-0.00000,0.00001,61.8,64.2,13,0,0,39.8,13.90,0.00,0.00
15min,AgWx,beryljct,423,29MAY2018:04:45:00,42.5,12.89,41.6,40.9,41.1,42.6,40.2,79,81,76,0.688,35.1,35.6,34.5,0.329,1.1,158,0.5,2.6,-0.00009,-0.00012,61.5,64.1,13,0,0,39.2,13.90,0.00,0.00
15min,AgWx,beryljct,423,29MAY2018:05:00:00,42.1,12.87,41.7,41.0,41.4,43.2,40.1,78,82,72,0.678,34.9,35.4,34.1,2.214,1.1,178,4.7,3.2,-0.00010,-0.00013,61.4,64.0,13,0,0,38.9,13.90,0.00,0.00
15min,AgWx,beryljct,423,29MAY2018:05:15:00,42.0,12.88,41.8,40.8,41.5,42.8,40.5,76,80,73,0.657,34.6,35.5,33.7,3.003,1.9,164,19,4.3,-0.00005,-0.00005,61.1,63.9,13,0,0,39.6,13.90,0.00,0.00
15min,AgWx,beryljct,423,29MAY2018:05:30:00,41.6,12.87,39.5,38.9,39.3,41.2,38.7,80,83,74,0.635,33.6,34.2,32.8,2.148,2.0,148,18,3.3,0.00009,0.00015,60.9,63.8,13,0,0,38.4,13.90,0.00,0.00
15min,AgWx,beryljct,423,29MAY2018:05:45:00,41.1,12.87,39.0,38.1,38.7,39.2,37.9,80,85,77,0.658,33.0,33.9,32.2,0.241,1.8,181,8.5,3.4,0.00008,0.00014,60.7,63.7,13,0,0,37.5,13.90,0.00,0.00
15min,AgWx,beryljct,423,29MAY2018:06:00:00,40.6,12.86,38.1,37.3,37.8,38.5,37.2,83,85,81,0.608,33.1,34.2,31.9,3.749,2.7,170,20,6.4,0.00009,0.00016,60.5,63.6,13,0,0,37.0,13.90,0.00,0.00
15min,AgWx,beryljct,423,29MAY2018:06:15:00,40.1,12.85,37.6,37.4,37.2,37.6,36.7,80,83,78,0.605,31.8,32.1,31.4,2.214,1.1,197,2.9,3.7,0.00006,0.00009,60.3,63.5,13,2,0,36.0,13.90,0.00,0.00
15min,AgWx,beryljct,423,29MAY2018:06:30:00,39.7,12.86,37.6,38.2,37.1,38.2,36.7,83,86,80,0.632,32.4,33.0,31.9,3.617,1.8,198,0.2,3.7,0.00013,0.00018,60.1,63.4,13,15,0,37.5,13.90,0.00,0.00
15min,AgWx,beryljct,423,29MAY2018:06:45:00,40.0,12.88,40.1,39.5,39.6,41.3,38.2,76,81,71,0.604,32.7,34.0,31.4,0,1.2,197,1.6,3.8,0.00030,0.00036,59.9,63.3,13,48,0,46.6,13.90,0.00,0.00
15min,AgWx,beryljct,423,29MAY2018:07:00:00,40.8,12.87,39.5,39.2,39.3,39.7,39.1,84,90,73,0.733,34.8,36.6,31.6,0.482,0.1,192,4.3,0.7,0.00038,0.00041,59.7,63.2,13,84,0,54.2,13.90,0.00,0.00
15min,AgWx,beryljct,423,29MAY2018:07:15:00,42.4,12.87,41.3,41.4,40.8,42.0,39.0,83,91,75,0.749,36.1,37.8,34.1,1.688,0.6,152,6.5,2.4,0.00055,0.00060,59.5,63.0,13,124,0,59.4,13.90,0.00,0.00
15min,AgWx,beryljct,423,29MAY2018:07:30:00,44.6,12.89,43.9,44.4,43.3,44.4,41.5,80,86,74,0.760,37.5,38.7,36.4,0,0.9,122,8.9,2.2,0.00076,0.00084,59.3,62.9,13,167,0,64.8,13.90,0.00,0.00
15min,AgWx,beryljct,423,29MAY2018:07:45:00,46.9,12.91,46.6,47.3,46.1,47.4,44.4,71,78,65,0.735,37.3,38.6,35.7,2.324,1.8,0.3,17,3.1,0.00104,0.00119,59.1,62.8,13,212,0,66.3,13.90,0.00,0.00
15min,AgWx,beryljct,423,29MAY2018:08:00:00,49.5,12.92,48.9,50.0,48.5,50.0,47.3,64,68,61,0.776,37.0,38.9,35.7,0,1.3,356,22,3.0,0.00132,0.00148,59.0,62.7,13,260,0,73.6,13.90,0.00,0.00
15min,AgWx,beryljct,423,29MAY2018:08:15:00,52.4,12.94,51.4,51.8,51.1,52.1,49.9,63,71,59,0.847,38.7,42.5,37.0,0,0.1,21,0.8,0.8,0.00158,0.00169,58.9,62.6,13,308,0,84.7,13.89,0.00,0.00
15min,AgWx,beryljct,423,29MAY2018:08:30:00,55.3,12.94,52.7,52.9,52.4,53.2,51.7,63,67,60,0.826,40.2,41.5,38.6,1.732,0.3,25,0.0,1.7,0.00189,0.00204,58.8,62.5,13,359,0,90.0,13.89,0.00,0.00
15min,AgWx,beryljct,423,29MAY2018:08:45:00,57.7,13.01,54.5,55.6,54.2,55.6,52.9,58,62,54,0.821,39.8,41.3,38.7,1.556,0.8,19,8.5,2.0,0.00223,0.00244,58.7,62.4,13,409,0,89.0,13.89,0.00,0.00
15min,AgWx,beryljct,423,29MAY2018:09:00:00,60.0,13.16,56.7,57.6,56.4,57.7,55.5,53,59,48,0.780,39.6,42.0,38.0,2.565,1.5,7.0,11,3.8,0.00261,0.00292,58.7,62.3,13,457,0,90.6,13.89,0.00,0.00
15min,AgWx,beryljct,423,29MAY2018:09:15:00,62.2,13.37,58.2,58.1,58.1,58.6,57.6,50,55,47,0.864,39.5,42.3,38.0,2.959,1.6,48,57,3.5,0.00296,0.00330,58.8,62.2,13,506,0,92.4,13.88,0.00,0.00
15min,AgWx,beryljct,423,29MAY2018:09:30:00,64.1,13.63,58.9,59.5,58.8,59.8,58.0,53,59,49,0.904,41.9,44.6,39.5,3.266,1.0,124,13,4.2,0.00324,0.00354,58.8,62.1,13,554,0,97.6,13.88,0.00,0.00
15min,AgWx,beryljct,423,29MAY2018:09:45:00,66.1,13.99,60.1,60.5,60.1,61.1,59.3,51,57,48,0.930,42.1,45.5,40.6,0.986,0.6,150,3.8,3.2,0.00356,0.00386,58.9,62.0,13,601,0,102.8,13.88,0.00,0.00
15min,AgWx,beryljct,423,29MAY2018:10:00:00,67.9,14.15,61.2,61.7,61.2,62.6,60.2,52,58,49,0.959,43.4,47.5,41.1,1.337,0.9,114,41,3.1,0.00390,0.00425,59.1,61.9,13,647,0,104.7,13.87,0.00,0.00
15min,AgWx,beryljct,423,29MAY2018:10:15:00,69.6,14.17,63.1,63.5,63.0,64.9,61.7,47,52,43,0.940,42.4,46.8,40.9,0.088,0.8,274,70,2.7,0.00424,0.00461,59.3,61.8,13,689,0,107.0,13.87,0.00,0.00
15min,AgWx,beryljct,423,29MAY2018:10:30:00,71.2,14.1,64.1,64.1,64.1,65.1,63.3,47,51,43,1.008,43.2,46.0,40.6,4.165,1.2,109,62,5.3,0.00456,0.00499,59.5,61.7,13,731,0,108.0,13.87,0.00,0.00
15min,AgWx,beryljct,423,29MAY2018:10:45:00,72.2,14.05,65.3,66.6,65.2,66.6,64.0,45,51,41,0.951,43.2,46.8,40.8,3.442,1.6,51,56,4.1,0.00488,0.00539,59.7,61.7,13,770,0,105.2,13.86,0.00,0.00
15min,AgWx,beryljct,423,29MAY2018:11:00:00,73.0,14.05,65.9,66.1,66.1,67.1,65.3,46,51,40,1.017,44.8,47.6,40.8,4.713,2.9,77,36,4.8,0.00519,0.00585,60.0,61.6,13,807,0,104.3,13.86,0.00,0.00
15min,AgWx,beryljct,423,29MAY2018:11:15:00,73.1,14.1,65.8,66.0,66.0,66.5,65.5,47,55,39,0.854,45.4,49.5,40.5,3.223,5.4,96,22,8.2,0.00543,0.00633,60.3,61.6,13,841,0,97.9,13.86,0.00,0.00
15min,AgWx,beryljct,423,29MAY2018:11:30:00,73.1,14.07,66.6,67.2,66.6,67.2,65.9,47,54,39,1.051,45.8,49.5,40.2,7.453,4.9,104,18,8.4,0.00564,0.00651,60.6,61.6,13,872,0,98.8,13.86,0.00,0.00
15min,AgWx,beryljct,423,29MAY2018:11:45:00,73.5,14.02,68.0,68.6,67.9,69.0,66.9,41,49,35,1.001,43.4,48.6,40.1,0.219,3.4,60,44,7.3,0.00592,0.00674,61.0,61.6,13,901,0,101.8,13.86,0.00,0.00
15min,AgWx,beryljct,423,29MAY2018:12:00:00,74.2,14,68.5,68.8,68.7,69.2,68.2,43,51,37,1.140,45.4,49.9,41.4,5.108,3.9,70,43,8.6,0.00612,0.00697,61.4,61.6,13,926,0,103.5,13.86,0.00,0.00
15min,AgWx,beryljct,423,29MAY2018:12:15:00,74.6,13.68,68.7,69.1,68.9,69.4,68.5,43,50,37,1.199,45.5,49.9,41.4,6.555,5.5,74,26,10.5,0.00630,0.00733,61.9,61.7,13,950,0,100.0,13.86,0.00,0.00
15min,AgWx,beryljct,423,29MAY2018:12:30:00,74.9,13.59,69.7,70.8,69.8,71.1,68.7,42,52,35,0.938,45.8,51.0,41.2,4.954,4.3,84,68,12.7,0.00647,0.00740,62.4,61.7,13,969,0,102.1,13.86,0.00,0.00
15min,AgWx,beryljct,423,29MAY2018:12:45:00,75.5,13.59,70.3,70.3,70.5,71.5,69.9,38,47,31,1.078,43.5,49.2,39.0,9.43,5.2,47,38,10.1,0.00667,0.00776,62.9,61.8,13,984,0,101.0,13.86,0.00,0.00
15min,AgWx,beryljct,423,29MAY2018:13:00:00,76.0,13.63,71.0,72.1,71.1,72.6,69.9,37,46,28,0.797,43.2,48.7,37.1,4.691,5.5,43,39,9.9,0.00679,0.00795,63.4,61.9,13,994,0,99.4,13.86,0.00,0.00
15min,AgWx,beryljct,423,29MAY2018:13:15:00,76.9,13.61,71.8,72.3,72.0,73.0,71.0,34,43,28,1.010,41.9,48.4,37.7,3.705,3.1,21,38,6.1,0.00681,0.00772,64.0,62.0,13,1003,0,104.4,13.86,0.00,0.00
15min,AgWx,beryljct,423,29MAY2018:13:30:00,77.4,13.56,71.2,71.3,71.5,72.3,71.1,40,48,34,0.948,45.6,50.9,41.2,3.661,7.7,79,16,13.2,0.00692,0.00827,64.6,62.1,13,1007,0,98.2,13.86,0.00,0.00
15min,AgWx,beryljct,423,29MAY2018:13:45:00,77.4,13.57,71.6,71.9,71.8,72.1,71.2,39,46,31,1.062,45.2,50.1,39.4,11.22,6.4,104,24,11.2,0.00692,0.00815,65.2,62.2,13,1007,0,98.9,13.86,0.00,0.00
15min,AgWx,beryljct,423,29MAY2018:14:00:00,77.5,13.56,72.0,72.4,72.1,72.8,71.6,37,47,30,1.121,44.6,51.3,38.6,6.686,5.5,93,30,10.4,0.00688,0.00805,65.8,62.4,13,999,0,98.4,13.86,0.00,0.00
15min,AgWx,beryljct,423,29MAY2018:14:15:00,77.9,13.58,72.6,72.8,72.8,73.4,72.2,37,44,30,1.032,45.1,49.8,39.5,3.091,5.5,97,18,9.5,0.00692,0.00810,66.4,62.5,13,998,0,100.5,13.86,0.00,0.00
15min,AgWx,beryljct,423,29MAY2018:14:30:00,78.4,13.53,73.2,73.6,73.3,73.8,72.8,38,47,30,1.107,46.0,51.7,40.1,11.47,5.2,109,24,11.8,0.00688,0.00801,67.0,62.7,13,989,0,99.9,13.86,0.00,0.00
15min,AgWx,beryljct,423,29MAY2018:14:45:00,78.8,13.51,73.6,74.0,73.7,74.5,73.3,36,47,29,1.102,45.2,52.8,39.3,5.744,5.9,83,33,12.5,0.00688,0.00813,67.7,62.9,13,977,0,98.9,13.86,0.00,0.00
15min,AgWx,beryljct,423,29MAY2018:15:00:00,79.3,13.47,73.8,74.1,73.9,74.2,73.5,37,45,29,1.203,46.2,51.3,39.8,7.322,6.4,101,32,12.1,0.00676,0.00803,68.2,63.1,13,954,0,96.7,13.86,0.00,0.00
15min,AgWx,beryljct,423,29MAY2018:15:15:00,79.6,13.45,74.1,74.6,74.3,74.7,73.9,38,44,27,1.083,46.8,51.4,38.1,4.998,5.8,109,27,10.5,0.00666,0.00785,68.8,63.3,13,941,0,97.5,13.86,0.00,0.00
15min,AgWx,beryljct,423,29MAY2018:15:30:00,80.5,13.42,75.4,76.7,75.4,76.9,74.5,33,44,26,0.936,44.4,52.0,39.7,1.798,3.9,94,66,6.8,0.00621,0.00721,69.3,63.6,13,878,0,101.2,13.86,0.00,0.00
15min,AgWx,beryljct,423,29MAY2018:15:45:00,81.4,13.41,75.5,75.1,75.8,77.0,74.9,35,43,27,0.877,45.9,51.4,39.2,5.086,4.6,45,39,10.3,0.00600,0.00706,69.7,63.8,13,837,0,96.5,13.86,0.00,0.00
15min,AgWx,beryljct,423,29MAY2018:16:00:00,81.9,13.38,74.9,74.9,75.1,75.3,74.8,38,48,29,0.937,47.7,54.2,40.7,6.862,5.9,92,16,10.9,0.00614,0.00732,70.1,64.0,13,855,0,95.2,13.86,0.00,0.00
15min,AgWx,beryljct,423,29MAY2018:16:15:00,82.1,13.4,75.1,75.4,75.2,75.7,74.8,37,44,29,0.975,47.1,51.8,40.9,4.538,5.7,100,21,10.6,0.00594,0.00711,70.3,64.2,13,823,0,94.0,13.86,0.00,0.00
15min,AgWx,beryljct,423,29MAY2018:16:30:00,82.6,13.39,75.7,76.0,75.8,76.2,75.4,34,42,24,1.080,45.5,51.6,37.1,4.954,4.8,71,23,9.4,0.00545,0.00650,70.5,64.4,13,754,0,93.8,13.86,0.00,0.00
15min,AgWx,beryljct,423,29MAY2018:16:45:00,83.3,13.34,75.9,76.0,76.1,76.5,75.8,34,41,26,1.074,45.3,50.4,38.7,4.735,5.0,59,19,10.9,0.00543,0.00651,70.8,64.7,13,746,0,93.3,13.86,0.00,0.00
15min,AgWx,beryljct,423,29MAY2018:17:00:00,83.9,13.32,76.4,76.4,76.5,77.6,75.9,32,42,24,1.163,44.2,51.8,37.3,5.765,4.0,130,36,7.2,0.00507,0.00603,71.0,64.9,13,705,0,93.8,13.86,0.00,0.00
15min,AgWx,beryljct,423,29MAY2018:17:15:00,84.1,13.32,75.7,76.2,75.8,76.5,75.2,35,44,25,0.973,46.3,51.8,38.0,4.998,5.9,92,20,9.1,0.00482,0.00597,71.4,65.1,13,643,0,89.8,13.86,0.00,0.00
15min,AgWx,beryljct,423,29MAY2018:17:30:00,83.2,13.44,75.3,74.2,75.6,76.7,74.1,35,44,26,1.081,45.9,51.6,39.0,8.18,3.8,126,29,8.2,0.00268,0.00342,71.7,65.3,13,360,0,85.9,13.86,0.00,0.00
15min,AgWx,beryljct,423,29MAY2018:17:45:00,82.1,13.38,74.8,75.4,74.9,75.5,74.1,39,49,32,1.237,48.5,54.8,43.8,4.604,5.7,80,14,8.2,0.00410,0.00512,72.0,65.5,13,555,0,84.7,13.86,0.00,0.00
15min,AgWx,beryljct,423,29MAY2018:18:00:00,80.9,13.39,73.6,73.2,73.9,75.7,72.7,39,45,29,1.043,47.6,50.6,41.3,3.529,2.9,85,12,5.4,0.00141,0.00191,72.3,65.7,13,142,0,79.6,13.86,0.00,0.00
15min,AgWx,beryljct,423,29MAY2018:18:15:00,78.6,13.41,73.4,73.5,73.4,74.6,72.5,36,44,28,1.163,44.8,49.6,39.7,2.455,3.3,95,14,4.7,0.00136,0.00193,72.5,65.9,13,132,0,75.3,13.87,0.00,0.00
15min,AgWx,beryljct,423,29MAY2018:18:30:00,76.7,13.33,73.3,73.6,73.3,74.4,71.9,34,43,27,0.871,42.9,49.5,38.0,4.954,4.6,64,18,7.8,0.00136,0.00211,72.7,66.1,13,74,0,73.9,13.87,0.00,0.00
15min,AgWx,beryljct,423,29MAY2018:18:45:00,76.4,13.43,75.6,76.6,75.4,77.1,73.6,31,40,24,1.045,42.4,49.0,36.3,3.244,4.8,29,14,8.0,0.00263,0.00355,72.8,66.3,13,349,0,78.5,13.87,0.00,0.00
15min,AgWx,beryljct,423,29MAY2018:19:00:00,77.7,13.35,76.1,74.9,76.3,77.5,74.9,29,38,23,0.970,41.6,48.5,35.8,6.796,3.8,46,19,6.8,0.00233,0.00311,72.8,66.5,13,323,0,80.8,13.86,0.00,0.00
15min,AgWx,beryljct,423,29MAY2018:19:15:00,78.1,13.3,73.9,71.7,74.3,76.0,71.7,33,38,25,0.977,43.0,46.5,37.1,5.415,5.1,58,14,8.1,0.00146,0.00232,72.8,66.6,13,168,0,76.5,13.87,0.00,0.00
15min,AgWx,beryljct,423,29MAY2018:19:30:00,77.2,13.25,73.0,73.2,73.0,75.4,71.0,35,42,25,1.004,43.4,47.3,37.4,4.801,5.4,47,18,7.7,0.00182,0.00270,72.8,66.8,13,223,0,74.4,13.87,0.00,0.00
15min,AgWx,beryljct,423,29MAY2018:19:45:00,76.8,13.24,72.2,71.3,72.4,73.6,71.3,37,41,31,1.033,44.5,46.6,41.5,3.661,5.1,47,7.7,8.4,0.00145,0.00224,72.8,66.9,13,178,0,73.8,13.87,0.00,0.00
15min,AgWx,beryljct,423,29MAY2018:20:00:00,75.7,13.22,70.8,70.7,70.9,71.5,70.5,38,42,35,0.920,44.2,46.6,42.0,4.647,4.5,63,5.6,6.3,0.00057,0.00082,72.7,67.1,13,82,0,70.8,13.87,0.00,0.00
15min,AgWx,beryljct,423,29MAY2018:20:15:00,73.7,13.21,69.6,69.4,69.7,70.6,69.3,38,40,37,0.947,43.0,44.0,42.0,4.056,4.8,57,3.7,6.4,0.00050,0.00073,72.6,67.2,13,51,0,68.7,13.87,0.00,0.00
15min,AgWx,beryljct,423,29MAY2018:20:30:00,71.8,13.2,68.6,67.4,68.8,69.8,67.4,39,42,35,0.963,43.0,44.1,41.2,3.179,3.7,59,4.3,5.0,0.00028,0.00044,72.5,67.3,13,20,0,67.1,13.87,0.00,0.00
15min,AgWx,beryljct,423,29MAY2018:20:45:00,70.0,13.18,66.6,65.4,66.8,67.5,65.4,42,44,40,0.929,42.8,43.7,41.9,3.508,4.1,56,7.3,5.3,0.00029,0.00044,72.3,67.4,13,17,0,65.0,13.88,0.00,0.00
15min,AgWx,beryljct,423,29MAY2018:21:00:00,68.3,13.15,66.4,65.3,66.3,67.0,65.3,38,43,36,0.881,40.1,42.5,38.8,3.529,3.6,48,4.3,4.2,0.00021,0.00034,72.1,67.5,13,5,0,63.8,13.88,0.00,0.00
15min,AgWx,beryljct,423,29MAY2018:21:15:00,66.8,13.15,65.0,64.9,64.9,65.6,64.5,42,44,40,0.879,41.1,41.9,40.3,0.548,2.2,61,5.4,4.5,-0.00001,0.00004,71.9,67.6,13,0,0,61.9,13.88,0.00,0.00
15min,AgWx,beryljct,423,29MAY2018:21:30:00,65.4,13.14,63.8,62.9,63.9,65.0,62.9,44,47,41,0.917,41.4,43.1,40.5,0,0.2,68,3.3,1.5,-0.00037,-0.00058,71.6,67.6,13,0,0,59.4,13.88,0.00,0.00
15min,AgWx,beryljct,423,29MAY2018:21:45:00,64.4,13.12,63.8,63.1,63.6,64.4,62.5,42,48,39,0.835,39.8,42.7,38.6,2.258,2.1,44,4.4,3.5,-0.00004,-0.00001,71.4,67.7,14,0,0,59.8,13.88,0.00,0.00
15min,AgWx,beryljct,423,29MAY2018:22:00:00,63.6,13.13,63.5,62.4,63.5,64.4,62.4,41,45,37,0.860,39.2,40.8,37.6,0.044,1.8,36,6.8,3.0,-0.00007,-0.00005,71.1,67.7,13,0,0,59.9,13.88,0.00,0.00
15min,AgWx,beryljct,423,29MAY2018:22:15:00,62.8,13.11,61.5,61.4,61.4,62.2,60.9,45,47,43,0.812,39.9,41.2,38.9,0.373,0.9,20,5.6,2.0,-0.00023,-0.00032,70.8,67.7,13,0,0,58.2,13.88,0.00,0.00
15min,AgWx,beryljct,423,29MAY2018:22:30:00,62.0,13.11,61.2,59.3,61.3,62.0,59.3,44,51,41,0.880,39.0,41.2,37.9,1.162,0.5,12,0.1,1.3,-0.00031,-0.00046,70.5,67.7,13,0,0,57.2,13.88,0.00,0.00
15min,AgWx,beryljct,423,29MAY2018:22:45:00,60.8,13.1,59.0,58.9,58.9,61.2,57.3,50,56,42,0.854,40.3,42.6,38.0,0.11,0.3,299,9.7,1.2,-0.00033,-0.00050,70.2,67.8,13,0,0,55.6,13.88,0.00,0.00
15min,AgWx,beryljct,423,29MAY2018:23:00:00,59.9,13.08,60.2,59.6,59.9,60.8,58.7,47,52,44,0.817,39.5,41.3,38.5,0.482,0.4,262,23,1.8,-0.00033,-0.00050,69.9,67.7,13,0,0,55.9,13.88,0.00,0.00
15min,AgWx,beryljct,423,29MAY2018:23:15:00,59.3,13.07,59.4,60.1,59.2,61.2,56.6,49,57,44,0.849,40.2,42.0,38.8,1.359,1.2,203,26,3.7,-0.00018,-0.00024,69.6,67.7,13,0,0,55.8,13.88,0.00,0.00
15min,AgWx,beryljct,423,29MAY2018:23:30:00,58.8,13.07,59.7,58.9,59.7,60.9,58.4,48,52,44,0.882,40.1,41.3,38.8,0.351,0.5,157,1.3,1.9,-0.00030,-0.00045,69.3,67.7,13,0,0,55.9,13.89,0.00,0.00
15min,AgWx,beryljct,423,29MAY2018:23:45:00,58.4,13.04,59.4,62.7,58.8,62.7,56.1,53,64,40,0.777,41.4,44.3,38.1,4.056,1.5,222,59,4.2,-0.00015,-0.00019,69.0,67.7,14,0,0,55.6,13.89,0.00,0.00
15min,AgWx,beryljct,423,30MAY2018:00:00:00,57.9,13.04,56.1,53.5,56.9,62.9,52.6,54,64,40,0.816,40.1,41.2,38.0,3.858,4.6,313,6.8,5.4,0.00016,0.00024,68.7,67.6,14,0,0,56.0,13.89,0.00,0.00
15min,AgWx,beryljct,423,30MAY2018:00:15:00,56.9,13.04,55.5,57.7,54.9,57.9,53.4,59,65,50,0.827,40.8,42.4,39.2,4.231,3.7,294,7.1,4.8,0.00004,0.00009,68.5,67.6,13,0,0,53.0,13.89,0.00,0.00
15min,AgWx,beryljct,423,30MAY2018:00:30:00,56.4,13.03,57.5,55.2,57.5,60.0,55.2,52,63,44,0.930,40.1,42.7,37.6,0.438,3.5,288,2.8,4.4,0.00007,0.00014,68.2,67.5,14,0,0,55.5,13.89,0.00,0.00
15min,AgWx,beryljct,423,30MAY2018:00:45:00,56.0,13.01,55.5,54.9,55.4,57.0,54.0,58,65,52,0.849,41.0,42.8,39.7,3.836,4.2,290,3.5,5.5,0.00008,0.00014,67.9,67.5,13,0,0,54.2,13.89,0.00,0.00
15min,AgWx,bigpiney,439,29MAY2018:01:00:00,47.4,12.77,44.8,44.4,44.3,44.4,44.1,91,91,90,0.896,41.7,41.8,41.5,2.521,2.6,288,6.2,3.5,0.00004,0.00006,56.0,53.9,54,0,0,0.0,.,0.00,0.00
15min,AgWx,bigpiney,439,29MAY2018:01:15:00,47.5,12.76,44.8,44.6,44.5,44.6,44.4,90,91,90,0.903,41.9,42.0,41.7,2.916,2.4,275,15,3.4,0.00004,0.00006,55.9,53.8,54,0,0,0.0,.,0.00,0.00
15min,AgWx,bigpiney,439,29MAY2018:01:30:00,47.7,12.75,44.9,44.6,44.8,45.1,44.6,89,90,87,0.888,41.6,42.0,41.3,2.17,3.1,314,13,4.1,0.00006,0.00008,55.7,53.7,54,0,0,0.0,.,0.00,0.00
15min,AgWx,bigpiney,439,29MAY2018:01:45:00,47.8,12.74,44.4,44.3,44.4,44.7,44.3,89,90,89,0.890,41.5,41.7,41.3,1.622,2.3,286,13,3.0,0.00004,0.00006,55.6,53.6,54,0,0,0.0,.,0.00,0.00
15min,AgWx,bigpiney,439,29MAY2018:02:00:00,47.8,12.73,43.7,43.5,43.9,44.3,43.5,91,92,90,0.873,41.5,41.7,41.0,2.981,1.9,239,8.6,3.4,0.00003,0.00005,55.4,53.6,54,0,0,0.0,.,0.00,0.00
15min,AgWx,bigpiney,439,29MAY2018:02:15:00,47.7,12.72,43.7,43.5,43.3,43.5,43.2,90,91,89,0.851,40.6,41.1,40.3,2.74,2.8,257,14,4.4,0.00004,0.00006,55.3,53.5,54,0,0,0.0,.,0.00,0.00
15min,AgWx,bigpiney,439,29MAY2018:02:30:00,47.4,12.71,43.3,42.9,43.3,43.4,42.9,89,90,89,0.841,40.3,40.5,40.0,3.464,1.7,262,24,3.8,0.00004,0.00005,55.2,53.4,54,0,0,0.0,.,0.00,0.00
15min,AgWx,bigpiney,439,29MAY2018:02:45:00,47.1,12.7,42.0,42.0,42.5,43.1,42.0,89,90,88,0.815,39.5,40.2,39.2,1.469,2.8,220,8.0,4.2,0.00005,0.00007,55.0,53.3,54,0,0,0.0,.,0.00,0.00
15min,AgWx,bigpiney,439,29MAY2018:03:00:00,46.6,12.69,41.3,41.0,41.5,42.0,41.0,91,92,90,0.801,39.0,39.3,38.8,1.556,2.3,251,21,3.8,0.00004,0.00005,54.9,53.3,54,0,0,0.0,.,0.00,0.00
15min,AgWx,bigpiney,439,29MAY2018:03:15:00,46.1,12.68,40.8,40.6,40.7,41.1,40.4,92,92,91,0.791,38.5,39.0,38.2,1.052,1.9,255,14,3.5,0.00003,0.00004,54.8,53.2,54,0,0,0.0,.,0.00,0.00
15min,AgWx,bigpiney,439,29MAY2018:03:30:00,45.4,12.66,40.4,40.3,40.7,41.1,40.3,92,92,90,0.774,38.5,38.9,37.8,2.017,1.5,247,12,2.5,0.00002,0.00004,54.7,53.1,54,0,1,0.0,.,0.00,0.00
15min,AgWx,bigpiney,439,29MAY2018:03:45:00,44.9,12.65,42.8,42.3,41.1,42.3,39.9,91,93,89,0.819,38.8,39.5,37.6,0.855,1.3,241,7.3,2.2,0.00002,0.00003,54.6,53.0,54,0,100,0.0,.,0.00,0.00
15min,AgWx,bigpiney,439,29MAY2018:04:00:00,44.5,12.64,43.0,42.7,42.5,42.8,42.2,90,91,89,0.845,39.9,40.4,39.2,0,1.0,315,20,1.5,0.00002,0.00003,54.4,53.0,54,0,100,0.0,.,0.00,0.00
15min,AgWx,bigpiney,439,29MAY2018:04:15:00,44.4,12.63,40.8,40.5,41.5,42.8,40.5,91,92,91,0.790,39.2,40.3,38.3,1.6,1.7,238,28,3.0,0.00003,0.00004,54.3,52.9,54,0,100,0.0,.,0.00,0.00
15min,AgWx,bigpiney,439,29MAY2018:04:30:00,44.4,12.62,41.0,40.7,40.7,41.0,40.4,92,93,91,0.788,38.6,38.8,38.3,3.683,1.6,217,8.8,3.7,0.00002,0.00004,54.2,52.8,54,0,100,0.0,.,0.00,0.00
15min,AgWx,bigpiney,439,29MAY2018:04:45:00,44.5,12.62,40.1,40.0,40.5,40.8,40.0,91,91,91,0.764,38.1,38.4,37.6,4.735,3.7,215,6.3,5.3,0.00004,0.00006,54.1,52.7,54,0,49,0.0,.,0.00,0.00
15min,AgWx,bigpiney,439,29MAY2018:05:00:00,44.3,12.59,39.9,39.6,39.7,40.0,39.6,92,92,91,0.755,37.5,37.6,37.3,3.486,3.2,221,6.7,4.2,0.00004,0.00005,53.9,52.7,54,0,0,0.0,.,0.00,0.00
15min,AgWx,bigpiney,439,29MAY2018:05:15:00,44.1,12.59,40.0,39.9,39.7,40.1,39.5,91,92,89,0.749,37.3,37.7,37.0,2.521,3.2,220,6.3,4.5,0.00004,0.00006,53.8,52.6,54,0,0,0.0,.,0.00,0.00
15min,AgWx,bigpiney,439,29MAY2018:05:30:00,43.8,12.58,40.7,40.6,39.8,40.6,39.5,90,92,88,0.755,37.2,37.5,37.1,2.938,3.0,222,11,4.5,0.00004,0.00006,53.7,52.5,54,0,0,0.0,.,0.00,0.00
15min,AgWx,bigpiney,439,29MAY2018:05:45:00,43.5,12.58,39.4,39.1,39.4,40.6,38.9,90,91,87,0.736,36.6,37.2,36.5,4.757,4.3,226,12,6.0,0.00005,0.00007,53.6,52.5,54,1,0,0.0,.,0.00,0.00
15min,AgWx,bigpiney,439,29MAY2018:06:00:00,43.2,12.58,38.6,38.3,38.9,39.4,38.3,91,91,90,0.717,36.3,36.8,35.9,3.179,3.5,229,14,4.5,0.00005,0.00007,53.4,52.4,54,4,0,0.0,.,0.00,0.00
15min,AgWx,bigpiney,439,29MAY2018:06:15:00,42.9,12.57,39.2,38.8,38.7,38.9,38.3,91,92,91,0.732,36.4,36.6,36.0,3.573,3.3,224,9.3,4.1,-0.00009,-0.00006,53.3,52.3,54,14,0,0.0,.,0.00,0.00
15min,AgWx,bigpiney,439,29MAY2018:06:30:00,42.7,12.6,40.3,39.9,39.5,39.9,38.8,91,92,90,0.751,37.0,37.2,36.5,3.573,3.8,235,11,6.2,-0.00000,0.00004,53.2,52.3,54,31,0,0.0,.,0.00,0.00
15min,AgWx,bigpiney,439,29MAY2018:06:45:00,42.8,12.63,41.3,41.1,40.8,41.5,39.9,88,90,85,0.765,37.5,37.8,37.2,3.551,4.0,214,15,5.4,0.00013,0.00020,53.1,52.2,54,53,0,0.0,.,0.00,0.00
15min,AgWx,bigpiney,439,29MAY2018:07:00:00,43.1,12.7,43.5,42.8,41.6,42.8,41.1,88,89,84,0.784,38.2,38.5,37.6,0,1.4,283,48,3.7,0.00021,0.00025,53.0,52.2,54,79,0,0.0,.,0.00,0.00
15min,AgWx,bigpiney,439,29MAY2018:07:15:00,43.6,12.73,41.9,41.7,42.1,43.0,41.5,89,91,83,0.809,39.1,39.9,38.2,3.223,1.6,102,60,3.2,0.00037,0.00042,52.9,52.1,54,120,0,0.0,.,0.00,0.00
15min,AgWx,bigpiney,439,29MAY2018:07:30:00,44.5,12.79,44.9,44.6,43.2,44.6,41.6,89,91,87,0.871,40.3,41.6,39.0,2.236,2.3,180,16,4.0,0.00065,0.00073,52.7,52.0,54,202,0,0.0,.,0.00,0.00
15min,AgWx,bigpiney,439,29MAY2018:07:45:00,46.0,12.93,45.3,44.9,45.3,46.7,44.3,86,88,84,0.872,41.4,42.9,40.4,5.459,3.7,62,75,10.8,0.00117,0.00131,52.6,51.9,54,310,0,0.0,.,0.00,0.00
15min,AgWx,bigpiney,439,29MAY2018:08:00:00,47.8,13.18,48.3,47.9,46.6,48.3,44.9,81,87,74,0.855,41.0,42.3,39.5,3.595,5.0,25,11,7.6,0.00174,0.00197,52.5,51.8,54,415,0,0.0,.,0.00,0.00
15min,AgWx,bigpiney,439,29MAY2018:08:15:00,50.0,13.1,51.5,50.7,49.3,50.8,48.0,76,78,73,0.971,42.1,44.0,40.1,3.42,2.6,346,35,5.0,0.00168,0.00189,52.4,51.8,54,377,0,0.0,.,0.00,0.00
15min,AgWx,bigpiney,439,29MAY2018:08:30:00,52.0,13.32,53.0,52.0,51.5,52.3,50.6,74,77,70,0.955,43.3,44.9,42.3,4.077,5.0,321,29,9.1,0.00197,0.00229,52.3,51.8,54,418,0,0.0,.,0.00,0.00
15min,AgWx,bigpiney,439,29MAY2018:08:45:00,53.8,13.42,52.3,52.8,52.3,53.1,51.8,70,74,67,0.952,42.8,44.3,41.4,5.678,5.4,335,17,7.9,0.00219,0.00256,52.2,51.7,54,440,0,0.0,.,0.00,0.00